Regional Weather Roundup
Issued by NWS

Home | Current Version | Previous Version | Text Only | Print | Product List | Glossary Off
Versions: 1 2 3 4 5 6 7 8 9 10 11 12 13 14 15 16 17 18 19 20 21 22 23 24 25 26 27 28 29 30 31 32 33 34 35 36 37 38 39 40 41 42 43 44 45 46 47 48

000
ASUS45 KBOU 232107
RWRCO

WEATHER ROUNDUP FOR COLORADO
NATIONAL WEATHER SERVICE DENVER/BOULDER CO
300 PM MDT WED JUL 23 2014

NOTE: "FAIR" INDICATES FEW OR NO CLOUDS BELOW 12000 FEET WITH NO
SIGNIFICANT WEATHER AND/OR OBSTRUCTIONS TO VISIBILITY.

COZ001>005-013-030-031-232200-
...NORTHWEST COLORADO...

CITY           SKY/WX    TMP DP  RH WIND       PRES   REMARKS
CRAIG          MOSUNNY   91  42  18 VRB3      30.28F
HAYDEN         MOSUNNY   91  34  13 W13G18    30.32F
MEEKER         MOSUNNY   93  34  12 MISG      30.29F
MOUNT WERNER   NOT AVBL
STEAMBOAT SPGS MOSUNNY   82  42  24 SE5       30.37F
WALDEN         MOSUNNY   79  36  21 S25G35    30.48S
$$

COZ006>008-011-232200-
...WEST CENTRAL VALLEYS...

CITY           SKY/WX    TMP DP  RH WIND       PRES   REMARKS
GRAND JUNCTION MOSUNNY   95  42  16 W10       30.16F
MONTROSE       MOSUNNY   92  42  17 W10       30.26F
EAGLE          MOSUNNY   93  39  15 W13G23    30.31F
RIFLE          MOSUNNY   97  31   9 W13G22    30.21F
DELTA          MOSUNNY  102  32   9 SE8       30.19F
NUCLA          MOSUNNY   95  34  11 CALM      30.29F
$$

COZ017>023-064>068-232200-
...SOUTHWEST COLORADO...

CITY           SKY/WX    TMP DP  RH WIND       PRES   REMARKS
DURANGO        SUNNY     90  27  10 VRB5G18   30.36F
CORTEZ         SUNNY     95  37  13 VRB6G18   30.28F
PAGOSA SPRINGS SUNNY     86  29  12 SW5       30.45F
TELLURIDE      PTSUNNY   75  39  27 W8G16     30.57S
WOLF CREEK PAS NOT AVBL
$$

COZ009-010-012-014-032>034-037-058>063-232200-
...CENTRAL COLORADO...

CITY           SKY/WX    TMP DP  RH WIND       PRES   REMARKS
ASPEN          MOSUNNY   86  36  16 E6        30.41F
BUENA VISTA    PTSUNNY   80  31  17 NW16      30.49F
COPPER MTN     PTSUNNY   64  32  29 W9        30.88S
BERTHOUD PASS  CLOUDY    52  36  54 E15       30.93S THUNDER
COTTONWOOD PAS LGT RAIN  72  28  20 SE7G25    30.67F
GUNNISON       MOSUNNY   84  36  17 CALM      30.45F
KREMMLING      PTSUNNY   82  23  11 N10G23    30.41S
LEADVILLE      PTSUNNY   68  36  30 E7        30.67S
MONARCH PASS   MOSUNNY   63  32  31 E20G28    30.93F
SALIDA         PTSUNNY  N/A N/A N/A E12G17    30.49F
SUNLIGHT       MOSUNNY   73  43  33 CALM      30.74F
WILKERSON PASS MOSUNNY   72  28  20 SW6       30.81F
$$

COZ069>075-232200-
...SAN LUIS VALLEY/SANGRE DE CRISTO MOUNTAINS...

CITY           SKY/WX    TMP DP  RH WIND       PRES   REMARKS
ALAMOSA        SUNNY     86  38  18 SW12      30.45F
LA VETA PASS   SUNNY     77  37  24 NE12G23   30.71F
SAGUACHE       MOSUNNY   86  32  14 S7        30.48F
$$

COZ035-036-038>040-232200-
...NORTHERN COLORADO FRONT RANGE...

CITY           SKY/WX    TMP DP  RH WIND       PRES   REMARKS
DENVER INTL AP PTSUNNY   87  60  40 W17       30.28F
DMNS CITY PARK   N/A     78  60  53 NW8G15    30.30F
AURORA         PTSUNNY   82  63  51 W12       30.32S
FRONT RANGE AP NOT AVBL
ERIE MUNI ARPT PTSUNNY   79  60  50 W6        30.29F
BOULDER MUN AP PTSUNNY   79  61  53 SE6       30.30F
CENTENNIAL     PTSUNNY   79  61  53 NW12      30.33F
BROOMFIELD     PTSUNNY   77  59  53 CALM      30.34
FORT COLLINS   MOSUNNY   81  63  54 W8        30.29S
LONGMONT       MOSUNNY   88  58  36 SE5       30.29F
$$

COZ041-046-047-076>085-087-088-232200-
...PIKES PEAK/PALMER DIVIDE AND SOUTHERN FOOTHILLS...

CITY           SKY/WX    TMP DP  RH WIND       PRES   REMARKS
COLO. SPRINGS  MOSUNNY   89  43  20 SE21G29   30.38F
A. F. ACADEMY  MOSUNNY   87  44  21 SE18      30.39F
ELLICOTT       SUNNY     89  42  19 S18G25    30.37F
FALCON         SUNNY     85  45  23 SE14G22   30.44F
FORT CARSON    SUNNY     90  48  23 SE8G20    30.35F
LIMON          MOSUNNY   89  61  38 SE24G35   30.32F
MONUMENT HILL  MOSUNNY   84  41  21 S20G29    30.42F
TRINIDAD       SUNNY     92  45  19 VRB7      30.32F
$$

COZ042>045-048>051-090-091-232200-
...NORTHEAST COLORADO...

CITY           SKY/WX    TMP DP  RH WIND       PRES   REMARKS
GREELEY ARPT   SUNNY     86  64  48 E13       30.25F
AKRON          SUNNY     86  64  47 S26G37    30.27F
BURLINGTON     SUNNY     87  63  44 SE18G28   30.27F
WRAY             N/A     95  56  27 SE15G25   30.22F
STERLING       SUNNY     90  70  51 S21       30.21F
HOLYOKE        SUNNY     93  64  38 S17G25    30.21F
FORT MORGAN    SUNNY     87  63  45 SE21      30.25F
$$

COZ086-089-092>099-232200-
...SOUTHEAST COLORADO...

CITY           SKY/WX    TMP DP  RH WIND       PRES   REMARKS
PUEBLO         SUNNY     95  49  20 SE17      30.24F
LA JUNTA       MOSUNNY   97  54  23 SE12      30.22F
LAMAR          MOSUNNY   92  66  42 E31G40    30.20F
SPRINGFIELD      N/A     94  46  19 SE13G20   30.25F
$$



USA.gov is the U.S. government's official web portal to all federal, state and local government web resources and services.